Big Delta, AK

5:03 PM AKDT on October 22, 2017 (GMT -0800)
Allen Army Air Field

Weather History for PABI - January, 2014

Change the Weather History Date:

Wednesday, January 1, 2014

  Actual Average Record
Temperature  
Mean Temperature 12 °F -  
Max Temperature 17 °F 2 °F 51 °F (2011)
Min Temperature 7 °F -8 °F -42 °F (2000)
Degree Days  
Heating Degree Days 53    
Moisture  
Dew Point 5 °F    
Average Humidity 64    
Maximum Humidity 73    
Minimum Humidity 48    
Precipitation  
Precipitation 0.00 in - - ()
Sea Level Pressure  
Sea Level Pressure 29.45 in    
Wind  
Wind Speed 30 mph (ESE)    
Max Wind Speed 43 mph    
Max Gust Speed 59 mph    
Visibility 10 miles    
Events Snow    
Averages and records for this station are not official NWS values.
T = Trace of Precipitation, MM = Missing Value Source: NWS Daily Summary

Daily Weather History Graph

Daily Weather History Graph

Search for Another Location

Airport or City:

Trip Planner

Search our weather history database for the weather conditions in past years. The results will help you decide how hot, cold, wet, or windy it might be!

Date:

Astronomy

Jan. 01, 2014 Rise Set
Actual Time 10:31 AM AKST 3:01 PM AKST
Civil Twilight 9:16 AM AKST 4:16 PM AKST
Nautical Twilight 8:09 AM AKST 5:24 PM AKST
Astronomical Twilight 7:10 AM AKST 6:23 PM AKST
Moon 9:50 AM AKST (1/1) 4:41 PM AKST (1/1)
Length of Visible Light 7h 00m
Length of Day
4h 29m
New Moon, 0% of the Moon is Illuminated
Jan 1
New Moon
Jan 7
First Quarter
Jan 15
Full
Jan 23
Last Quarter
Jan 30
New

Hourly Weather History & Observations

Time (AKST) Temp. Windchill Dew Point Humidity Pressure Visibility Wind Dir Wind Speed Gust Speed Precip Events Conditions
12:53 AM 12.0 °F -12.6 °F 1.9 °F 64% 29.59 in 9.0 mi ESE 42.6 mph 58.7 mph N/A Snow Light Snow
1:53 AM 12.0 °F -10.7 °F 1.9 °F 64% 29.57 in 10.0 mi East 34.5 mph 51.8 mph N/A   Scattered Clouds
2:53 AM 12.9 °F -9.8 °F 3.0 °F 65% 29.54 in 9.0 mi East 35.7 mph 49.5 mph N/A   Overcast
3:53 AM 12.9 °F -10.3 °F 3.0 °F 65% 29.52 in 10.0 mi East 38.0 mph 50.6 mph N/A   Clear
4:53 AM 14.0 °F -8.3 °F 3.9 °F 64% 29.48 in 10.0 mi East 35.7 mph 49.5 mph N/A   Clear
5:53 AM 15.1 °F -6.2 °F 3.9 °F 61% 29.46 in 10.0 mi ESE 33.4 mph 46.0 mph N/A   Clear
6:53 AM 15.1 °F -6.5 °F 5.0 °F 64% 29.43 in 10.0 mi ESE 34.5 mph 47.2 mph N/A   Mostly Cloudy
7:53 AM 16.0 °F -6.3 °F 5.0 °F 62% 29.41 in 10.0 mi East 39.1 mph 49.5 mph N/A   Mostly Cloudy
8:53 AM 16.0 °F -5.5 °F 5.0 °F 62% 29.40 in 9.0 mi East 35.7 mph 49.5 mph N/A   Mostly Cloudy
9:53 AM 15.1 °F -5.9 °F 5.0 °F 64% 29.39 in 10.0 mi East 32.2 mph 46.0 mph N/A   Mostly Cloudy
10:53 AM 16.0 °F -3.8 °F 5.0 °F 62% 29.39 in 10.0 mi East 28.8 mph 39.1 mph N/A   Mostly Cloudy
11:53 AM 16.0 °F -2.5 °F 5.0 °F 62% 29.40 in 10.0 mi East 24.2 mph 32.2 mph N/A   Mostly Cloudy
12:53 PM 16.0 °F -2.1 °F 6.1 °F 65% 29.39 in 10.0 mi ESE 23.0 mph 32.2 mph N/A   Mostly Cloudy
1:53 PM 16.0 °F 0.1 °F 6.1 °F 65% 29.39 in 10.0 mi ESE 17.3 mph 27.6 mph N/A   Mostly Cloudy
2:53 PM 16.0 °F -0.4 °F 6.1 °F 65% 29.39 in 10.0 mi ESE 18.4 mph - N/A   Mostly Cloudy
3:53 PM 16.0 °F -0.9 °F 6.1 °F 65% 29.39 in 10.0 mi ESE 19.6 mph 26.5 mph N/A   Mostly Cloudy
4:53 PM 15.1 °F -1.6 °F 6.1 °F 68% 29.40 in 10.0 mi ESE 18.4 mph - N/A   Mostly Cloudy
5:53 PM 14.0 °F -2.0 °F 6.1 °F 71% 29.41 in 10.0 mi East 16.1 mph - N/A   Scattered Clouds
6:53 PM 14.0 °F -2.5 °F 5.0 °F 67% 29.42 in 10.0 mi ESE 17.3 mph - N/A   Scattered Clouds
7:53 PM 14.0 °F -2.5 °F 5.0 °F 67% 29.43 in 10.0 mi SE 17.3 mph - N/A   Scattered Clouds
8:53 PM 12.9 °F -2.8 °F 5.0 °F 71% 29.44 in 10.0 mi ESE 15.0 mph - N/A   Scattered Clouds
9:53 PM 12.0 °F 0.5 °F 5.0 °F 73% 29.48 in 10.0 mi East 8.1 mph - N/A   Clear
10:53 PM 10.9 °F - 3.9 °F 73% 29.52 in 10.0 mi Calm Calm - N/A   Clear
11:53 PM 12.0 °F - 5.0 °F 73% 29.55 in 10.0 mi Calm Calm - N/A   Clear